www.meteoamater.cz
Weather data: current sobota, 26.11.2022 20:50
Date Time Temperature Humidity Barometer Rain Wind Sunshine ET UV - Index Solar Dewpoint Wind chill Wind gust
26.11.2022 20:50 3,1 C 95 % 1029,9 hPa 0,0 l/m2 0,0 km/h (0 Bft) 0 min 0,000 mm 0,0 UV-I 0 W/m2 2,4 C 3,1 C 0,0 km/h (0 Bft)
26.11.2022 19:50 2,9 C 95 % 1029,4 hPa 0,0 l/m2 0,0 km/h (0 Bft) 0 min 0,000 mm 0,0 UV-I 0 W/m2 2,2 C 2,9 C 0,0 km/h (0 Bft)
26.11.2022 18:50 2,8 C 95 % 1029,1 hPa 0,0 l/m2 0,0 km/h (0 Bft) 0 min 0,000 mm 0,0 UV-I 0 W/m2 2,1 C 2,8 C 0,0 km/h (0 Bft)
26.11.2022 17:50 3,2 C 95 % 1028,6 hPa 0,0 l/m2 0,7 km/h (0 Bft) 0 min 0,000 mm 0,0 UV-I 0 W/m2 2,5 C 3,2 C 7,7 km/h (2 Bft)
26.11.2022 16:50 3,3 C 96 % 1028,4 hPa 0,0 l/m2 2,7 km/h (1 Bft) 0 min 0,000 mm 0,0 UV-I 0 W/m2 2,7 C 3,3 C 11,6 km/h (2 Bft)
26.11.2022 15:50 3,6 C 96 % 1028,2 hPa 0,2 l/m2 2,9 km/h (1 Bft) 0 min 0,000 mm 0,0 UV-I 0 W/m2 3,0 C 3,6 C 11,6 km/h (2 Bft)
26.11.2022 14:50 3,7 C 96 % 1027,7 hPa 0,0 l/m2 0,8 km/h (0 Bft) 0 min 0,000 mm 0,0 UV-I 15 W/m2 3,1 C 3,7 C 9,7 km/h (2 Bft)
26.11.2022 13:50 4,0 C 96 % 1027,6 hPa 0,0 l/m2 5,0 km/h (1 Bft) 0 min 0,026 mm 0,0 UV-I 19 W/m2 3,4 C 2,9 C 19,3 km/h (3 Bft)
26.11.2022 12:50 4,3 C 96 % 1027,5 hPa 0,2 l/m2 3,7 km/h (1 Bft) 0 min 0,025 mm 0,2 UV-I 54 W/m2 3,7 C 4,3 C 15,4 km/h (3 Bft)
26.11.2022 11:50 4,6 C 96 % 1027,1 hPa 0,6 l/m2 2,5 km/h (1 Bft) 0 min 0,026 mm 0,0 UV-I 46 W/m2 4,0 C 4,6 C 13,5 km/h (3 Bft)
26.11.2022 10:50 4,5 C 96 % 1027,0 hPa 0,6 l/m2 0,6 km/h (0 Bft) 0 min 0,025 mm 0,6 UV-I 109 W/m2 3,9 C 4,5 C 7,7 km/h (2 Bft)
26.11.2022 09:50 4,2 C 96 % 1026,4 hPa 0,2 l/m2 0,4 km/h (0 Bft) 0 min 0,000 mm 0,0 UV-I 35 W/m2 3,6 C 4,2 C 3,9 km/h (1 Bft)
26.11.2022 08:50 4,2 C 96 % 1025,9 hPa 0,2 l/m2 2,7 km/h (1 Bft) 0 min 0,000 mm 0,0 UV-I 55 W/m2 3,6 C 4,2 C 13,5 km/h (3 Bft)
26.11.2022 07:50 3,9 C 96 % 1025,3 hPa 0,6 l/m2 1,9 km/h (1 Bft) 0 min 0,000 mm 0,0 UV-I 0 W/m2 3,3 C 3,9 C 9,7 km/h (2 Bft)
26.11.2022 06:50 3,7 C 96 % 1024,7 hPa 0,4 l/m2 0,9 km/h (0 Bft) 0 min 0,000 mm 0,0 UV-I 0 W/m2 3,1 C 3,7 C 7,7 km/h (2 Bft)
26.11.2022 05:50 3,3 C 96 % 1023,9 hPa 0,2 l/m2 1,4 km/h (1 Bft) 0 min 0,000 mm 0,0 UV-I 0 W/m2 2,7 C 3,3 C 11,6 km/h (2 Bft)
26.11.2022 04:50 2,2 C 96 % 1023,7 hPa 0,4 l/m2 0,1 km/h (0 Bft) 0 min 0,000 mm 0,0 UV-I 0 W/m2 1,6 C 2,2 C 1,9 km/h (1 Bft)
26.11.2022 03:50 1,9 C 95 % 1023,2 hPa 1,0 l/m2 0,0 km/h (0 Bft) 0 min 0,000 mm 0,0 UV-I 0 W/m2 1,2 C 1,9 C 0,0 km/h (0 Bft)
26.11.2022 02:50 1,9 C 95 % 1022,8 hPa 0,2 l/m2 0,0 km/h (0 Bft) 0 min 0,000 mm 0,0 UV-I 0 W/m2 1,2 C 1,9 C 0,0 km/h (0 Bft)
26.11.2022 01:50 1,9 C 95 % 1022,6 hPa 0,2 l/m2 0,0 km/h (0 Bft) 0 min 0,000 mm 0,0 UV-I 0 W/m2 1,2 C 1,9 C 0,0 km/h (0 Bft)
26.11.2022 00:50 2,0 C 95 % 1022,3 hPa 0,4 l/m2 0,0 km/h (0 Bft) 0 min 0,000 mm 0,0 UV-I 0 W/m2 1,3 C 2,0 C 0,0 km/h (0 Bft)
25.11.2022 23:50 2,1 C 95 % 1022,0 hPa 0,4 l/m2 0,0 km/h (0 Bft) 0 min 0,000 mm 0,0 UV-I 0 W/m2 1,4 C 2,1 C 0,0 km/h (0 Bft)
25.11.2022 22:50 2,0 C 95 % 1021,5 hPa 0,0 l/m2 0,0 km/h (0 Bft) 0 min 0,000 mm 0,0 UV-I 0 W/m2 1,3 C 2,0 C 0,0 km/h (0 Bft)
25.11.2022 21:50 2,1 C 95 % 1021,3 hPa 0,0 l/m2 0,0 km/h (0 Bft) 0 min 0,000 mm 0,0 UV-I 0 W/m2 1,4 C 2,1 C 0,0 km/h (0 Bft)
25.11.2022 21:00 2,2 C 95 % 1020,6 hPa 0,0 l/m2 0,0 km/h (0 Bft) 0 min 0,000 mm 0,0 UV-I 0 W/m2 1,5 C 2,2 C 0,0 km/h (0 Bft)
_ Min-Time 04:40 20:50 21:00 - 20:50 - - - - 04:40 04:40 20:50
Minimum _ 1,9 C 95 % 1020,6 hPa - 0,0 km/h (0 Bft) - - - - 1,2 C 1,9 C 0,0 km/h (0 Bft)
_ Max-Time 11:20 17:00 20:50 15:35 13:55 20:50 13:00 11:30 11:15 11:20 11:20 13:55
Maximum _ 4,9 C 96 % 1029,9 hPa 0,2 l/m2 6,9 km/h
N-NW (2 Bft)
0 min 0,026 mm 0,7 UV-I 150 W/m2 4,3 C 4,9 C 23,2 km/h
W-NW (4 Bft)
Average _ 3,1 C 95 % 1025,2 hPa #5,8 l/m2 0,8 km/h (0 Bft) #0 min. #0,102 mm 0,4 UV-I 39 W/m2 2,4 C 3,0 C 4,9 km/h (1 Bft)
©2007-2022 Meteoamater.cz